Date,TemperatureHighF,TemperatureAvgF,TemperatureLowF,DewpointHighF,DewpointAvgF,DewpointLowF,HumidityHigh,HumidityAvg,HumidityLow,PressureMaxIn,PressureMinIn,WindSpeedMaxMPH,WindSpeedAvgMPH,GustSpeedMaxMPH,PrecipitationSumIn
2013-2-1,48,47,45,43,39,36,84,73,67,29.71,29.55,32,20,32,0.12
2013-2-2,50,42,31,33,30,27,87,65,50,30.28,30.11,10,6,13,0.00
2013-2-3,52,49,33,51,48,31,99,96,90,30.28,30.07,39,27,48,0.04
2013-2-4,52,50,48,51,41,38,98,73,63,30.12,29.90,54,38,63,0.00
2013-2-5,48,46,42,42,37,31,79,70,58,29.87,29.62,58,46,70,0.04
2013-2-6,47,44,39,39,34,29,85,70,60,30.18,29.66,21,11,70,0.09
2013-2-7,47,45,43,43,39,33,93,79,61,30.16,29.95,26,17,39,0.06
2013-2-8,49,46,41,43,38,35,84,73,62,30.22,30.08,17,7,39,0.01
2013-2-9,50,49,47,47,46,43,94,88,84,30.19,29.76,25,17,31,0.02
2013-2-10,49,45,41,48,39,34,97,78,64,29.72,29.25,36,19,46,0.24
2013-2-11,49,45,39,43,41,38,95,84,70,29.69,29.36,20,6,20,0.01
2013-2-12,48,45,44,42,39,38,93,82,71,29.99,29.90,11,4,14,0.02
2013-2-13,53,52,44,53,51,42,100,98,94,29.98,29.88,31,17,33,0.27
2013-2-14,54,51,48,47,45,44,89,81,72,30.03,29.90,42,28,43,0.09
2013-2-15,54,48,41,46,41,38,90,77,58,30.13,30.05,10,6,43,0.00
2013-2-16,55,50,46,46,43,40,87,76,64,30.09,30.01,14,9,14,0.00
2013-2-17,50,48,45,39,38,37,78,69,61,29.93,29.83,28,24,35,0.00
2013-2-18,51,47,45,43,42,41,87,81,74,29.96,29.87,24,21,27,0.00
2013-2-19,50,47,43,40,38,37,82,72,65,29.95,29.92,27,20,30,0.00
2013-2-20,50,47,44,41,38,37,77,72,64,29.98,29.93,37,30,41,0.00
2013-2-21,43,40,39,30,28,26,63,60,57,29.98,29.93,38,34,46,0.00
2013-2-22,37,36,33,28,24,20,70,61,56,30.06,29.97,28,18,29,0.00
2013-2-23,39,36,33,23,21,19,60,54,50,30.13,30.07,11,7,29,0.00
2013-2-24,41,38,35,25,24,22,66,56,46,30.31,30.25,12,6,14,0.00
2013-2-25,44,42,41,33,31,28,73,66,57,30.37,30.33,13,8,13,0.00
2013-2-26,42,42,41,37,35,31,82,76,66,30.47,30.38,27,18,38,0.00
2013-2-27,49,42,38,36,35,32,83,75,60,30.48,30.39,12,9,38,0.00
2013-2-28,44,42,41,32,29,26,68,59,51,30.32,30.26,20,10,32,0.00